This is the latest recevied weather packets stored in our database for station/object K5GHS-1. If no packets are shown the sender has not sent any weather packets the latest 10 day(s).
| Time | Temp. | Humidity | Pressure | Rain* | Wind** | Luminosity | Snow |
|---|---|---|---|---|---|---|---|
| 1777741334 | 23.89° C | 33% | 1020.5 hPa | 0 mm | - | 783 W/m² | - |
| 1777741030 | 24.44° C | 31% | 1020.3 hPa | 0 mm | - | 784 W/m² | - |
| 1777740728 | 24.44° C | 35% | 1020.5 hPa | 0 mm | - | 787 W/m² | - |
| 1777740423 | 23.89° C | 37% | 1020.6 hPa | 0 mm | - | 789 W/m² | - |
| 1777740121 | 23.89° C | 37% | 1020.4 hPa | 0 mm | - | 751 W/m² | - |
| 1777739816 | 23.33° C | 36% | 1020.4 hPa | 0 mm | - | 699 W/m² | - |
| 1777739514 | 23.89° C | 33% | 1020.4 hPa | 0 mm | - | 666 W/m² | - |
| 1777739210 | 23.89° C | 32% | 1020.4 hPa | 0 mm | - | 740 W/m² | - |
| 1777738907 | 23.89° C | 36% | 1020.4 hPa | 0 mm | - | 740 W/m² | - |
| 1777738605 | 23.33° C | 34% | 1020.5 hPa | 0 mm | - | 720 W/m² | - |
| 1777738301 | 23.33° C | 37% | 1020.3 hPa | 0 mm | - | 699 W/m² | - |
| 1777737999 | 23.33° C | 39% | 1020.5 hPa | 0 mm | - | 730 W/m² | - |
| 1777737698 | 22.78° C | 37% | 1020.6 hPa | 0 mm | - | 754 W/m² | - |
| 1777737395 | 22.78° C | 39% | 1020.4 hPa | 0 mm | - | 758 W/m² | - |
| 1777737092 | 22.78° C | 38% | 1020.5 hPa | 0 mm | - | 721 W/m² | - |
| 1777736788 | 22.22° C | 40% | 1020.4 hPa | 0 mm | - | 714 W/m² | - |
| 1777736160 | 22.22° C | 43% | 1020.2 hPa | 0 mm | - | 739 W/m² | - |
| 1777735857 | 22.22° C | 43% | 1020.4 hPa | 0 mm | - | 716 W/m² | - |
| 1777735555 | 22.22° C | 43% | 1020.1 hPa | 0 mm | - | 677 W/m² | - |
| 1777735252 | 21.67° C | 45% | 1020.2 hPa | 0 mm | - | 622 W/m² | - |
| 1777734949 | 22.22° C | 44% | 1020.3 hPa | 0 mm | - | 594 W/m² | - |
| 1777734646 | 21.67° C | 48% | 1020.1 hPa | 0 mm | - | 536 W/m² | - |
| 1777734344 | 21.11° C | 50% | 1020.1 hPa | 0 mm | - | 508 W/m² | - |
| 1777734039 | 21.11° C | 50% | 1020.2 hPa | 0 mm | - | 479 W/m² | - |
| 1777733736 | 21.11° C | 51% | 1020 hPa | 0 mm | - | 429 W/m² | - |
* Rain latest hour (hover to see other rain measurements)
** Current wind speed in m/s (hover to see current wind gust speed)